Regional Weather Roundup
Issued by NWS Charleston, WV

Home | Current Version | Previous Version | Graphics & Text | Print | Product List | Glossary On
Versions: 1 2 3 4 5 6 7 8 9 10 11 12 13 14 15 16 17 18 19 20 21 22 23 24 25 26 27 28 29 30 31 32 33 34 35 36 37 38 39 40 41 42 43 44 45 46 47 48 49 50
679
ASUS41 KRLX 091010
RWRRLX
West Virginia Regional Weather Roundup
National Weather Service Charleston WV
Issued by National Weather Service Pittsburgh PA
500 AM EST FRI DEC 09 2016

Note: "fair" indicates few or no clouds below 12,000 feet with no
significant weather and/or obstructions to visibility.

WVZ003-091100-
Northern Panhandle of West Virginia

CITY           SKY/WX    TMP DP  RH WIND       PRES   REMARKS
WHEELING       CLOUDY    21  15  78 W14G21    30.31R WCI   8
$$

WVZ009-091100-
Northwest West Virginia

CITY           SKY/WX    TMP DP  RH WIND       PRES   REMARKS
PARKERSBURG    FLURRIES  23  15  71 W7        30.42S WCI  15
$$

WVZ006-091100-
Western West Virginia

CITY           SKY/WX    TMP DP  RH WIND       PRES   REMARKS
HUNTINGTON     CLOUDY    24  13  62 W8        30.45R WCI  15
$$

WVZ015-091100-
West Central West Virginia

CITY           SKY/WX    TMP DP  RH WIND       PRES   REMARKS
CHARLESTON     CLOUDY    24  12  60 W9        30.42R WCI  14
$$

WVZ031-091100-
North Central West Virginia

CITY           SKY/WX    TMP DP  RH WIND       PRES   REMARKS
CLARKSBURG     LGT SNOW  23  17  78 W12       30.33S WCI  12
MORGANTOWN     FLURRIES  23  15  71 VRB3      30.31S
$$

WVZ035-042-091100-
South Central West Virginia

CITY           SKY/WX    TMP DP  RH WIND       PRES   REMARKS
BECKLEY        LGT SNOW  17  12  80 NW13      30.30R WCI   4
BLUEFIELD      LGT SNOW  18  13  80 NW9       30.26R WCI   7
$$

WVZ045-091100-
Greenbrier Valley of West Virginia

CITY           SKY/WX    TMP DP  RH WIND       PRES   REMARKS
LEWISBURG      CLOUDY    19   8  63 NW9       30.28R WCI   7
$$

WVZ047-091100-
Northern Mountains of West Virginia

CITY           SKY/WX    TMP DP  RH WIND       PRES   REMARKS
ELKINS         FLURRIES  20  12  71 SW7       30.28R WCI  11
$$

WVZ052-091100-
Eastern Panhandle of West Virginia

CITY           SKY/WX    TMP DP  RH WIND       PRES   REMARKS
MARTINSBURG    PTCLDY    26  12  55 W9        30.25R WCI  17
PETERSBURG     CLOUDY    28  13  53 W10G21    30.30S WCI  19
$$




USA.gov is the U.S. government's official web portal to all federal, state and local government web resources and services.